Regional Weather Roundup
Issued by NWS

Home | Current Version | Previous Version | Text Only | Print | Product List | Glossary Off
Versions: 1 2 3 4 5 6 7 8 9 10 11 12 13 14 15 16 17 18 19 20 21 22 23 24 25 26 27 28 29 30 31 32 33 34 35 36 37 38 39 40 41 42 43 44 45 46 47 48 49 50

000
ASUS43 KMPX 200110
RWRMN
WEATHER ROUNDUP FOR MINNESOTA
NATIONAL WEATHER SERVICE TWIN CITIES/CHANHASSEN MN
800 PM CDT THU APR 19 2018


NOTE: "FAIR" INDICATES FEW OR NO CLOUDS BELOW 12,000 FEET WITH NO
SIGNIFICANT WEATHER AND/OR OBSTRUCTIONS TO VISIBILITY. N/A MEANS
CURRENT SKY AND/OR WEATHER CONDITIONS ARE NOT AVAILABLE.

MNZ060>063-068>070-200200-
   Twin Cities Metro

CITY           SKY/WX    TMP DP  RH WIND       PRES   REMARKS
TWIN CITIES    FAIR      47  23  38 W7        30.45R
ST PAUL        FAIR      48  18  30 W3        30.46R
CRYSTAL        FAIR      45  22  40 W9        30.44R
BLAINE         PTCLDY    48  23  37 W7        30.44R
LAKEVILLE      FAIR      41  25  52 W3        30.45S
EDEN PRAIRIE   FAIR      44  21  40 W5        30.44S
SOUTH ST PAUL  FAIR      49  19  30 W5        30.44S
LAKE ELMO      FAIR      45  25  45 CALM      30.45R
$$
MNZ001>005-007-008-013>017-022>024-027-028-200200-
   Northwest Minnesota

CITY           SKY/WX    TMP DP  RH WIND       PRES   REMARKS
BEMIDJI        FAIR      46  23  39 NW3       30.38S
HALLOCK        MOCLDY    50  37  62 S10       30.36S
ROSEAU         FAIR      52  32  46 SW7       30.37S
WARROAD        FAIR      52  27  37 SW6       30.37S
THIEF RVR FALL FAIR      51  25  36 SW3       30.39S
CROOKSTON      FAIR      48  39  71 SW5       30.38F
FOSSTON        FAIR      48  23  37 SW3       30.39S
DETROIT LAKES  FAIR      50  28  43 CALM      30.39S
MOORHEAD       FAIR      50  36  57 N6        30.39S
PARK RAPIDS    FAIR      45  29  53 S5        30.38S
MAHNOMEN       FAIR      49  29  44 W5        30.38S
$$
MNZ006-009>011-018-025>026-200200-
   North Central Minnesota

CITY           SKY/WX    TMP DP  RH WIND       PRES   REMARKS
BAUDETTE       FAIR      50  16  25 CALM      30.36S
FLAG ISLAND    FAIR      36  21  55 S5        30.35S
INTL FALLS     FAIR      50  13  22 W3        30.36S
WASKISH        FAIR      50  16  25 CALM      30.38R
BIG FORK       FAIR      50  10  20 CALM      30.37S
LONGVILLE      FAIR      48  12  23 SW3       30.39R
GRAND RAPIDS   FAIR      45  17  32 CALM      30.39F
CRANE LAKE     FAIR      37  18  44 CALM      30.39S
ORR            FAIR      46   3  17 CALM      30.34S
COOK           FAIR      48  14  25 CALM      30.37S
WALKER         FAIR      48  19  31 S5        30.38R
$$
MNZ012-019>021-037-200200-
   Northeast Minnesota

CITY           SKY/WX    TMP DP  RH WIND       PRES   REMARKS
DULUTH         FAIR      50  17  27 W5        30.37S
ELY            FAIR      48   7  18 CALM      30.37R
HIBBING        FAIR      46  11  24 SW3       30.37S
EVELETH        FAIR      48  14  26 SW5       30.38S
DULUTH HARBOR  FAIR      50  21  32 SW6       30.39S
TWO HARBORS    FAIR      50  21  32 CALM      30.36R
SILVER BAY     FAIR      46  12  25 CALM      30.36R
GRAND MARAIS     N/A     37  25  61 SW6       30.38R
G MARAIS ARPRT FAIR      43   9  24 CALM      30.37R
$$
MNZ029>031-032-039>041-046>048-054>057-064-200200-
   West Central Minnesota

CITY           SKY/WX    TMP DP  RH WIND       PRES   REMARKS
FERGUS FALLS   FAIR      52  30  43 CALM      30.36S
WHEATON        CLEAR     48  30  49 SW6       30.41S
MORRIS         CLEAR     45  34  65 S8        30.41R
ALEXANDRIA     FAIR      47  30  51 S8        30.41S
ELBOW LAKE     FAIR      44  37  75 SE8       30.40S
WADENA         FAIR      48  28  46 CALM      30.39F
GLENWOOD       FAIR      41  28  60 S8        30.43S
APPLETON       CLEAR     45  27  49 S6        30.42F
BENSON         CLEAR     43  28  56 SW6       30.44S
ORTONVILLE     CLEAR     45  32  61 S6        30.41S
MADISON        CLEAR     39  34  81 S6        30.42F
WILLMAR        FAIR      43  28  56 CALM      30.47S
$$
MNZ033>034-036-042>043-049>051-058-059-200200-
   Central Minnesota

CITY           SKY/WX    TMP DP  RH WIND       PRES   REMARKS
ST CLOUD       FAIR      45  31  58 SW9       30.42S
SAUK CENTRE    FAIR      43  31  60 S6        30.42S
PAYNESVILLE    FAIR      43  33  68 W5        30.44S
AITKIN         FAIR      46  16  29 SW3       30.39R
PINE RIVER     FAIR      46  21  36 CALM      30.42S
BRAINERD       FAIR      49  21  33 W6        30.41R
STAPLES        FAIR      46  25  42 CALM      30.40S
LONG PRAIRIE   FAIR      45  30  57 S6        30.41F
LITTLE FALLS   FAIR      46  18  31 CALM      30.41F
LITCHFIELD     FAIR      41  32  70 CALM      30.45S
BUFFALO        FAIR      43  25  49 CALM      30.45F
MAPLE LAKE     FAIR      43  28  56 SW5       30.45S
HUTCHINSON     FAIR      39  31  71 SW3       30.47S
$$
MNZ037-044-045-052-053-200200-
   East Central Minnesota

CITY           SKY/WX    TMP DP  RH WIND       PRES   REMARKS
PRINCETON      FAIR      46  28  49 S5        30.44R
MORA           FAIR      45  19  36 SW5       30.44R
CAMBRIDGE      FAIR      48  30  49 S5        30.44R
RUSH CITY      FAIR      46  20  34 W3        30.43R
MOOSE LAKE     FAIR      50  18  27 SW3       30.38R
HINCKLEY       FAIR      45  25  45 SW7       30.41S
CLOQUET        FAIR      52   7  16 SW3       30.38S
MCGREGOR       FAIR      48  19  32 SW5       30.39S
$$
MNZ071>073-080-081-089-090-097-098-200200-
   Southwest Minnesota

CITY           SKY/WX    TMP DP  RH WIND       PRES   REMARKS
MONTEVIDEO     CLEAR     43  27  52 SW6       30.44S
GRANITE FALLS  CLEAR     41  31  68 SE7       30.46F
CANBY          CLEAR     42  31  64 SE3       30.43F
MARSHALL       CLEAR     41  27  57 S6        30.44F
REDWOOD FALLS  CLOUDY    38  27  64 S6        30.45F
OLIVIA         CLEAR     41  30  65 S3        30.45S
PIPESTONE      CLOUDY   N/A N/A N/A SE5       30.41F
WINDOM         CLOUDY    37  18  44 CALM      30.45F
WORTHINGTON    CLOUDY    34  26  72 E5        30.44F WCI  30
JACKSON        CLOUDY    36  21  55 CALM      30.46S
TRACY          CLEAR     40  29  66 S3        30.43F
SLAYTON        CLOUDY    34  29  80 SE5       30.44F WCI  30
$$
MNZ065>067-074>077-082>085-091>093-200200-
   South Central Minnesota

CITY           SKY/WX    TMP DP  RH WIND       PRES   REMARKS
MANKATO        FAIR      44  18  35 CALM      30.46F
NEW ULM        CLOUDY    36  27  69 W3        30.47S
ST JAMES       CLEAR     37  25  60 SW3       30.48S
FAIRMONT       CLOUDY    35  21  56 CALM      30.47F
GLENCOE        FAIR      41  29  63 CALM      30.45F
FARIBAULT      FAIR      41  23  48 CALM      30.46S
OWATONNA       FAIR      36  28  75 SW3       30.46S
WASECA         FAIR      36  30  80 CALM      30.47F
ALBERT LEA     FAIR      37  18  44 CALM      30.46S
$$
MNZ078>079-086>088-094>096-200200-
   Southeast Minnesota

CITY           SKY/WX    TMP DP  RH WIND       PRES   REMARKS
ROCHESTER      FAIR      39  22  50 W6        30.45S
RED WING       FAIR      46  16  29 CALM      30.45R
STANTON        FAIR      43  25  49 SW3       30.45S
DODGE CENTER   FAIR      37  27  65 W5        30.46S
WINONA         FAIR      43  27  52 CALM      30.44R
AUSTIN         FAIR      39  23  52 CALM      30.46S
PRESTON        FAIR      39  22  51 CALM      30.45S
$$
ABBREVIATIONS USED IN REMARKS
   TC - TEMPERATURES IN CELSIUS
  WCI - WIND CHILL INDEX
   HX - HEAT INDEX
  VSB - VISIBILITY
$$




USA.gov is the U.S. government's official web portal to all federal, state and local government web resources and services.